Regional Weather Roundup
Issued by NWS

Home | Current Version | Previous Version | Text Only | Print | Product List | Glossary On
Versions: 1 2 3 4 5 6 7 8 9 10 11 12 13 14 15 16 17 18 19 20 21 22 23 24 25 26 27 28 29 30 31 32 33 34 35 36 37 38 39 40 41 42 43 44 45 46 47 48 49 50
000
ASUS44 KOUN 272310
RWROK

WEATHER ROUNDUP FOR OKLAHOMA
NATIONAL WEATHER SERVICE NORMAN OK
600 PM CDT TUE JUN 27 2017

NOTE: "FAIR" INDICATES FEW OR NO CLOUDS BELOW 12,000 FEET WITH NO
      SIGNIFICANT WEATHER AND/OR OBSTRUCTIONS TO VISIBILITY.

OKZ001>007-009>012-014-015-017-280000-
NORTHWEST OKLAHOMA AND THE PANHANDLE

CITY           SKY/WX    TMP DP  RH WIND       PRES   REMARKS
GAGE           SUNNY     93  58  30 S24G35    29.86F HX  92
GUYMON         SUNNY     94  59  31 S26G33    29.80F HX  93
ENID/WOODRING  MOSUNNY   93  63  36 S21G28    29.86F HX  94
$$

OKZ016-021>023-033>039-044-045-280000-
SOUTHWEST OKLAHOMA

CITY           SKY/WX    TMP DP  RH WIND       PRES   REMARKS
LAWTON/REGL    SUNNY     92  67  43 SE14G21   29.90F HX  95
FREDERICK      MOSUNNY   92  64  39 S16       29.87F HX  93
CLINTON        SUNNY     93  59  31 S24       29.91F HX  92
HOBART         SUNNY     93  63  36 S21G28    29.90F HX  94
$$

OKZ018>020-024>031-280000-
CENTRAL OKLAHOMA

CITY           SKY/WX    TMP DP  RH WIND       PRES   REMARKS
OKLAHOMA CITY  MOSUNNY   91  61  36 S15G22    29.91F HX  91
OKC/WILEY POST SUNNY     93  62  35 S16       29.90F HX  93
STILLWATER     MOSUNNY   91  63  39 S15       29.90F HX  92
GUTHRIE        SUNNY     92  65  40 S15G21    29.89F HX  94
$$

OKZ008-013-054>072-280000-
NORTHEAST OKLAHOMA

CITY           SKY/WX    TMP DP  RH WIND       PRES   REMARKS
TULSA          MOSUNNY   89  66  46 S14       29.92F HX  91
TULSA/JONES    SUNNY     90  63  40 S13G18    29.93F HX  91
PONCA CITY     SUNNY     90  65  43 S21       29.88F HX  92
BARTLESVILLE   SUNNY     88  62  41 S10G20    29.92F
MUSKOGEE       SUNNY     86  65  49 SE12      29.96F
$$

OKZ032-040>043-046>053-073>077-280000-
SOUTH CENTRAL/SOUTHEAST OKLAHOMA

CITY           SKY/WX    TMP DP  RH WIND       PRES   REMARKS
ARDMORE/DWNTWN SUNNY     88  63  42 SW9       29.92F
MCALESTER      MOSUNNY   88  68  51 SE7       29.96F HX  91
$$





USA.gov is the U.S. government's official web portal to all federal, state and local government web resources and services.